Wind_Speed
17 15 12 11 9 7 6 5 4 2 3 4 5 6 8 10 10 11 12 13 14 14 14 14 13 13 13 13 14 15 15 14 13 13 13 12 11 10 10 9 8 7 6 5
18 16 14 12 11 9 9 7 5 3 1 2 4 7 8 8 9 10 10 11 13 13 13 13 12 12 12 12 12 13 14 14 14 12 12 12 11 10 9 8 7 6 5 5
17 16 15 12 10 9 10 8 6 5 4 4 5 6 7 8 7 8 9 9 11 12 12 12 12 11 11 11 11 12 13 13 13 13 13 12 11 10 9 8 7 6 5 5
19 17 16 14 11 9 10 9 7 7 7 7 7 7 7 8 7 7 8 8 10 10 10 11 10 9 9 9 10 10 11 11 11 11 12 12 11 10 9 8 6 5 5 5
20 18 17 15 13 11 10 10 9 9 9 9 9 9 8 8 7 6 6 7 7 8 9 9 9 9 8 9 9 10 10 10 10 11 11 11 11 11 10 8 7 6 5 5
23 21 20 18 15 14 13 13 13 11 11 11 10 10 10 9 7 6 5 5 5 6 7 7 8 7 7 8 8 9 9 9 10 10 11 11 11 11 10 10 9 7 6 6
24 23 22 20 18 17 16 15 15 14 12 11 12 13 11 9 8 5 5 5 4 5 6 6 6 6 6 6 7 8 8 9 9 9 9 10 10 10 10 9 9 8 8 7
25 24 22 21 19 18 18 17 17 15 13 12 13 14 12 10 10 8 6 6 5 5 5 5 6 6 6 6 7 8 8 9 9 9 9 9 10 10 10 9 9 8 8 8
25 25 23 22 21 20 19 19 18 16 15 14 14 14 12 12 11 10 7 6 6 6 5 5 6 6 6 6 7 8 8 9 9 9 9 9 9 9 9 10 9 9 9 8
25 25 25 24 24 23 20 19 19 20 19 18 17 16 14 14 14 12 9 9 7 7 6 6 6 6 7 7 8 9 10 9 8 8 9 9 9 9 10 10 10 9 9 9
27 27 27 27 27 25 23 22 23 23 22 21 21 19 17 14 14 12 10 9 8 8 8 7 7 8 8 8 9 9 9 9 9 9 9 9 10 10 10 11 11 10 10 10
29 28 29 29 27 26 24 24 24 25 24 23 23 22 19 16 15 13 12 11 10 10 10 9 9 9 10 11 11 10 10 10 10 11 11 11 11 11 11 11 11 11 11 11
30 31 31 30 29 29 28 26 25 26 27 27 26 23 21 19 17 16 15 14 14 13 12 12 12 12 12 12 11 11 12 12 12 12 12 12 12 12 12 13 12 12 11 11
33 34 34 33 32 32 31 30 28 28 29 29 28 25 23 22 20 19 17 16 16 15 14 14 14 14 14 13 13 13 14 14 14 14 14 14 14 14 14 14 14 13 13 13
35 36 36 35 35 35 34 33 31 30 31 32 30 28 26 24 23 21 20 19 18 16 17 16 16 15 16 16 15 15 15 15 16 16 16 17 16 16 16 16 16 16 16 15
38 38 38 38 36 37 37 35 34 33 33 33 32 29 28 27 26 24 23 22 21 19 19 18 18 18 18 17 17 17 17 18 18 18 19 19 19 19 19 18 18 18 18 18
39 39 39 39 38 38 38 36 36 36 35 35 34 32 30 29 29 28 27 26 24 23 22 21 21 21 20 20 20 20 19 20 20 20 21 21 21 21 20 20 20 20 19 20
40 40 40 40 39 41 39 37 36 36 36 36 35 34 32 30 29 30 29 28 27 26 24 24 24 24 23 23 23 22 22 22 22 23 23 23 23 23 23 22 22 22 22 22
40 40 40 41 41 40 39 38 37 37 38 38 36 35 34 32 31 30 29 28 27 27 26 26 27 26 26 26 25 25 25 25 25 26 25 25 25 25 25 25 25 25 25 24
41 41 41 42 42 42 40 38 38 38 39 38 38 37 37 36 34 33 31 30 30 30 29 29 29 29 29 29 28 28 28 28 29 29 29 28 28 27 27 27 27 26 26 26
40 41 41 42 43 44 41 40 40 41 41 38 38 38 38 38 37 35 34 33 32 32 31 31 31 31 31 31 31 31 31 31 32 32 32 31 30 29 29 28 28 27 27 27
38 40 41 42 44 45 43 42 42 42 41 40 39 39 39 39 39 37 36 35 35 35 34 34 33 33 33 34 34 33 33 33 33 33 33 33 32 31 30 30 29 28 28 27
39 41 41 42 43 43 43 43 43 43 43 42 41 40 41 40 40 40 39 39 39 38 38 37 36 35 35 35 35 34 34 34 34 34 35 34 33 31 30 30 30 30 29 29
38 41 42 41 41 41 42 42 42 42 43 43 43 42 42 41 40 41 41 41 40 40 39 39 38 36 36 36 36 36 35 35 35 36 36 35 34 32 31 31 31 30 30 30
39 40 40 41 41 41 41 42 43 43 42 42 43 44 43 42 42 42 42 41 41 40 40 39 38 37 36 37 38 38 38 38 37 36 36 36 36 35 33 32 32 32 31 30
38 39 40 41 41 42 42 42 43 43 43 43 43 44 44 45 44 43 43 42 42 41 41 40 39 38 37 38 38 38 38 37 36 36 36 36 37 36 35 34 33 33 32 31
Wind_Direction
182 178 173 170 172 168 161 155 138 93 26 4 1 1 7 13 14 15 18 25 28 28 31 35 38 41 45 49 51 52 51 52 55 54 52 51 51 51 52 50 49 46 48 47
186 182 180 181 184 189 186 188 180 191 204 300 327 334 346 357 5 2 6 16 24 26 27 32 36 39 43 48 51 51 51 50 49 50 48 48 47 46 46 45 42 42 43 36
192 186 187 191 197 203 200 199 202 205 214 258 282 292 312 326 343 354 0 7 19 22 22 27 32 37 40 44 46 47 48 47 46 44 42 42 41 41 38 38 39 40 32 30
198 195 195 198 197 202 206 205 208 214 231 252 265 276 294 315 327 337 349 357 7 16 19 24 29 32 36 38 39 40 41 43 43 39 36 34 34 33 31 32 33 31 28 30
204 203 203 204 203 209 211 211 219 224 238 249 254 268 286 300 307 320 337 344 355 11 15 19 27 29 32 34 34 34 34 38 37 37 33 32 31 29 26 25 23 23 21 19
210 210 209 207 207 213 218 218 219 223 238 240 244 261 274 285 289 302 320 334 349 2 10 16 22 23 25 28 26 25 26 26 26 27 26 25 26 25 23 21 20 18 12 7
215 215 212 208 209 213 221 221 218 220 229 236 245 255 264 267 279 288 304 319 330 350 358 5 6 7 14 18 16 15 17 16 14 15 15 16 15 15 15 14 13 11 8 5
218 215 213 212 214 218 223 226 224 231 234 236 246 253 255 259 269 277 295 301 307 322 334 343 345 348 350 356 2 4 4 1 3 6 6 4 4 4 6 5 2 0 358 357
222 219 216 215 216 219 223 229 230 233 232 236 244 250 252 253 258 263 277 294 300 307 317 327 328 329 332 336 347 348 345 343 348 353 354 355 355 355 353 352 351 349 347 345
226 223 219 217 219 220 223 229 231 231 231 239 245 253 257 260 257 258 264 281 291 294 303 315 318 324 327 329 331 333 337 333 336 337 342 346 348 347 344 343 342 341 339 336
228 226 220 218 220 222 223 227 232 234 236 242 247 253 259 260 250 255 260 266 278 285 287 297 311 314 316 316 320 324 323 326 326 327 328 331 335 335 337 337 335 333 329 326
225 226 223 220 220 223 227 231 235 237 240 242 250 254 258 258 257 258 260 266 271 276 281 285 294 300 305 309 310 310 314 316 314 313 316 321 322 324 324 330 327 326 323 319
225 226 226 223 221 223 227 230 234 238 242 245 249 252 256 257 258 260 264 268 273 273 280 284 289 294 297 302 303 302 304 306 307 307 309 311 312 314 316 318 319 319 320 320
228 230 230 228 224 224 227 229 232 238 242 245 246 248 252 256 259 261 264 266 269 271 272 277 282 287 291 293 296 299 300 301 303 304 304 305 305 304 306 310 312 313 313 312
230 232 233 232 228 229 232 232 232 237 241 243 244 247 249 250 256 260 262 263 260 268 270 273 277 282 288 290 292 295 297 300 300 300 301 301 301 301 302 303 305 306 307 306
230 233 234 233 231 230 232 232 234 236 240 240 241 244 246 248 249 254 258 263 262 265 268 270 273 280 285 287 288 291 293 295 296 297 297 297 298 298 298 298 300 302 303 302
229 232 234 234 232 233 233 233 234 237 240 242 241 242 245 247 248 251 257 263 265 267 265 266 271 275 279 283 284 287 290 291 291 293 294 294 295 294 294 295 296 297 298 299
231 233 235 236 234 236 236 236 237 238 240 243 245 243 241 245 249 251 255 260 263 265 263 267 271 274 277 280 283 284 286 289 290 290 291 291 291 290 290 292 294 294 294 294
231 234 237 237 236 238 237 238 239 240 240 240 243 245 245 245 246 249 251 254 258 260 263 267 270 273 276 279 281 283 285 288 289 289 289 288 287 287 288 289 290 292 291 291
232 234 237 238 238 239 239 239 239 241 242 241 242 245 245 244 246 248 250 253 257 260 263 266 269 271 275 277 280 281 283 285 287 287 288 285 285 284 285 286 286 288 290 290
233 234 236 238 239 240 240 239 239 241 242 242 244 245 246 246 247 249 251 254 257 260 263 266 267 269 272 274 277 279 281 282 284 286 287 285 284 284 284 284 285 286 288 288
235 237 237 238 239 240 240 241 241 243 244 245 245 245 246 248 249 250 253 256 259 262 263 265 266 268 269 270 273 276 277 279 281 283 284 285 285 284 282 282 283 285 287 287
236 237 238 239 241 242 243 244 244 244 245 246 246 248 248 249 251 253 255 258 261 263 265 265 264 266 268 270 272 273 274 275 278 280 282 283 282 282 281 281 282 283 284 285
238 238 238 240 241 242 243 243 244 245 245 247 248 249 249 249 251 253 256 258 260 262 265 266 264 264 266 268 269 270 272 273 275 278 279 280 281 281 280 282 282 282 282 282
240 240 240 239 241 242 243 244 245 246 246 248 250 251 250 251 252 254 256 258 260 261 261 263 263 264 265 266 267 269 271 272 274 275 277 277 278 279 280 281 282 281 282 282
242 242 241 241 240 242 243 243 245 247 248 249 249 250 251 252 252 253 255 256 258 260 261 262 264 264 265 266 266 268 270 272 272 274 276 276 276 278 278 279 280 281 281 282
Height
5920 5922 5923 5924 5925 5927 5928 5929 5929 5929 5929 5930 5929 5929 5928 5927 5926 5926 5924 5923 5921 5920 5918 5916 5914 5913 5912 5910 5909 5907 5906 5904 5903 5902 5901 5899 5898 5897 5896 5895 5894 5893 5892 5891
5918 5920 5921 5922 5924 5925 5927 5928 5929 5929 5929 5930 5929 5929 5928 5927 5927 5926 5925 5924 5922 5921 5919 5917 5916 5915 5913 5912 5911 5909 5908 5907 5905 5904 5902 5901 5899 5898 5897 5896 5895 5893 5892 5891
5915 5918 5919 5920 5922 5923 5925 5927 5928 5928 5928 5929 5929 5929 5928 5927 5927 5927 5926 5925 5923 5922 5920 5919 5917 5916 5915 5914 5912 5911 5910 5908 5907 5905 5904 5902 5901 5899 5898 5896 5895 5894 5893 5891
5912 5915 5916 5917 5920 5921 5923 5925 5927 5927 5928 5927 5928 5927 5928 5927 5927 5926 5926 5924 5923 5922 5921 5920 5918 5917 5916 5915 5914 5912 5911 5909 5908 5906 5905 5903 5902 5900 5899 5897 5896 5894 5893 5892
5909 5911 5913 5914 5917 5919 5921 5923 5924 5925 5925 5926 5926 5926 5927 5926 5926 5926 5925 5924 5923 5922 5922 5921 5919 5918 5917 5916 5914 5913 5912 5910 5909 5907 5906 5904 5903 5901 5899 5897 5896 5894 5893 5892
5905 5907 5909 5912 5914 5917 5919 5921 5922 5923 5923 5924 5924 5924 5925 5925 5925 5925 5924 5923 5923 5922 5921 5921 5920 5919 5917 5916 5915 5913 5912 5911 5909 5908 5906 5905 5903 5901 5899 5897 5896 5894 5893 5892
5900 5902 5905 5908 5911 5913 5916 5918 5919 5920 5920 5921 5922 5922 5923 5923 5923 5923 5923 5923 5923 5922 5921 5920 5920 5919 5918 5916 5915 5914 5912 5911 5909 5908 5906 5905 5903 5901 5899 5897 5896 5894 5893 5891
5895 5898 5901 5904 5907 5910 5912 5915 5917 5917 5917 5918 5918 5918 5921 5921 5921 5921 5921 5922 5922 5921 5920 5919 5919 5918 5917 5916 5915 5913 5912 5910 5909 5907 5906 5904 5902 5901 5899 5897 5895 5894 5892 5890
5890 5894 5898 5900 5903 5906 5908 5910 5913 5914 5914 5914 5915 5915 5916 5917 5918 5918 5918 5919 5920 5919 5919 5918 5918 5917 5916 5915 5914 5913 5911 5910 5908 5906 5905 5904 5902 5900 5898 5896 5894 5893 5891 5889
5885 5889 5893 5896 5899 5901 5904 5907 5908 5909 5910 5910 5911 5912 5913 5914 5915 5916 5916 5917 5917 5917 5916 5916 5916 5915 5915 5914 5913 5912 5909 5908 5907 5905 5904 5902 5901 5899 5897 5895 5893 5891 5889 5888
5879 5882 5886 5890 5893 5896 5899 5901 5902 5904 5905 5906 5906 5910 5910 5911 5912 5912 5913 5914 5914 5914 5914 5914 5913 5913 5913 5912 5911 5910 5909 5907 5906 5904 5902 5901 5899 5897 5895 5893 5891 5889 5888 5886
5872 5876 5879 5883 5888 5891 5893 5895 5898 5899 5900 5902 5902 5907 5905 5906 5907 5908 5910 5910 5911 5911 5911 5910 5910 5910 5910 5909 5909 5907 5906 5905 5903 5902 5900 5898 5897 5895 5893 5891 5889 5887 5885 5884
5866 5870 5873 5877 5883 5885 5887 5889 5891 5893 5895 5896 5897 5902 5901 5902 5903 5904 5905 5906 5906 5907 5907 5907 5907 5907 5906 5906 5905 5904 5903 5902 5900 5899 5897 5896 5894 5892 5890 5888 5886 5885 5882 5881
5860 5862 5866 5870 5874 5878 5880 5883 5885 5887 5888 5890 5892 5894 5896 5897 5898 5900 5900 5901 5902 5903 5903 5903 5903 5903 5902 5902 5901 5900 5899 5898 5897 5895 5894 5892 5891 5889 5887 5885 5884 5882 5879 5877
5851 5855 5858 5862 5867 5870 5873 5876 5879 5880 5882 5883 5886 5887 5890 5891 5893 5894 5895 5896 5897 5898 5899 5899 5899 5898 5898 5897 5896 5896 5895 5893 5892 5891 5889 5888 5887 5885 5883 5881 5879 5877 5875 5873
5843 5846 5850 5854 5859 5862 5865 5869 5872 5874 5875 5876 5878 5881 5884 5885 5887 5888 5889 5890 5891 5892 5893 5894 5894 5893 5892 5892 5891 5891 5890 5889 5888 5886 5884 5883 5881 5880 5878 5876 5874 5872 5870 5868
5834 5838 5842 5846 5850 5853 5857 5861 5864 5866 5868 5870 5871 5875 5877 5879 5880 5881 5882 5883 5884 5886 5887 5888 5888 5888 5887 5886 5886 5886 5885 5883 5882 5881 5879 5877 5875 5874 5872 5870 5869 5867 5865 5863
5826 5829 5833 5837 5842 5844 5851 5853 5855 5858 5860 5862 5864 5867 5869 5871 5873 5875 5876 5877 5878 5879 5880 5881 5881 5881 5881 5880 5880 5879 5878 5877 5876 5875 5873 5871 5869 5867 5865 5864 5862 5861 5859 5857
5817 5821 5824 5828 5831 5835 5841 5844 5847 5849 5851 5854 5856 5858 5861 5863 5865 5867 5869 5870 5871 5872 5873 5874 5874 5874 5874 5873 5873 5872 5871 5870 5869 5867 5865 5864 5862 5860 5858 5857 5855 5853 5851 5849
5808 5811 5815 5818 5821 5826 5832 5835 5838 5841 5842 5845 5847 5850 5853 5855 5857 5859 5861 5863 5863 5864 5865 5866 5866 5867 5867 5866 5865 5865 5864 5863 5861 5859 5857 5856 5854 5852 5851 5849 5847 5845 5843 5841
5799 5801 5805 5808 5811 5816 5822 5825 5828 5831 5834 5837 5839 5841 5844 5845 5848 5851 5853 5854 5855 5856 5857 5858 5858 5858 5858 5857 5857 5856 5855 5854 5853 5851 5849 5847 5846 5844 5842 5841 5839 5837 5835 5833
5789 5792 5795 5799 5802 5808 5811 5815 5818 5820 5824 5826 5829 5832 5834 5836 5838 5841 5843 5845 5846 5847 5848 5849 5849 5849 5849 5848 5847 5846 5846 5845 5844 5842 5841 5839 5837 5835 5833 5832 5830 5828 5827 5825
5778 5782 5785 5789 5794 5797 5800 5803 5807 5810 5813 5816 5819 5821 5824 5826 5828 5830 5832 5834 5836 5837 5838 5839 5839 5839 5839 5838 5837 5836 5836 5835 5834 5833 5831 5830 5828 5825 5823 5822 5821 5819 5817 5816
5769 5772 5775 5779 5782 5786 5789 5792 5795 5799 5802 5806 5808 5811 5813 5816 5818 5820 5822 5824 5825 5827 5827 5828 5828 5828 5828 5828 5827 5826 5826 5825 5824 5823 5822 5820 5818 5816 5815 5813 5811 5809 5808 5806
5761 5763 5765 5768 5772 5775 5779 5782 5785 5788 5791 5795 5797 5800 5802 5805 5807 5809 5811 5813 5814 5815 5816 5817 5817 5817 5818 5818 5817 5816 5815 5815 5814 5813 5812 5811 5809 5808 5806 5804 5802 5801 5799 5797
5751 5753 5755 5758 5762 5765 5768 5770 5774 5777 5780 5783 5786 5788 5790 5793 5796 5798 5800 5801 5802 5803 5804 5806 5806 5807 5807 5807 5806 5806 5805 5804 5803 5802 5801 5800 5799 5798 5796 5794 5793 5791 5790 5789